When you browse on this site, cookies collect data to enhance your experience and personalize the content and advertising you see.
Visit our Privacy Policy to learn more. By continuing to use the site, you agree to this use of cookies and data.
  • In Latvia
  • List of Countries
  • For 7 days
  • Water Temperature
  • Weather Map
  • Weather Widgets
  • user-avatar
    Login

    Hourly Weather Sumgayit

    Today, 5 June, Friday

    Time Temperature Precipitation Wind Pressure Humidity
    00:00 +21°C° 0 mm 2 mps 737 mmHg 58%
    01:00 +21°C° 0 mm 2 mps 737 mmHg 60%
    02:00 +20°C° 0 mm 2 mps 737 mmHg 62%
    03:00 +21°C° 0 mm 1 mps 737 mmHg 65%
    04:00 +20°C° 0 mm 2 mps 737 mmHg 62%
    05:00 +21°C° 0 mm 2 mps 738 mmHg 59%
    06:00 +21°C° 0 mm 2 mps 738 mmHg 57%
    07:00 +24°C° 0 mm 3 mps 739 mmHg 51%
    08:00 +25°C° 0 mm 4 mps 739 mmHg 45%
    09:00 +27°C° 0 mm 5 mps 740 mmHg 39%
    10:00 +28°C° 0 mm 6 mps 740 mmHg 38%
    11:00 +28°C° 0 mm 7 mps 740 mmHg 37%
    12:00 +29°C° 0 mm 8 mps 740 mmHg 35%
    13:00 +29°C° 0 mm 9 mps 740 mmHg 37%
    14:00 +28°C° 0 mm 10 mps 740 mmHg 38%
    15:00 +28°C° 0 mm 11 mps 739 mmHg 39%
    16:00 +27°C° 0 mm 12 mps 740 mmHg 41%
    17:00 +27°C° 0 mm 12 mps 740 mmHg 43%
    18:00 +26°C° 0 mm 12 mps 740 mmHg 46%
    19:00 +26°C° 0 mm 12 mps 740 mmHg 46%
    20:00 +24°C° 0 mm 12 mps 741 mmHg 46%
    21:00 +24°C° 0 mm 12 mps 741 mmHg 46%
    22:00 +24°C° 0 mm 11 mps 742 mmHg 47%
    23:00 +23°C° 0 mm 10 mps 742 mmHg 48%

    Tomorrow, 6 June, Saturday

    Time Temperature Precipitation Wind Pressure Humidity
    00:00 +23°C° 0 mm 9 mps 742 mmHg 49%
    01:00 +23°C° 0 mm 8 mps 742 mmHg 51%
    02:00 +23°C° 0 mm 7 mps 742 mmHg 53%
    03:00 +22°C° 0 mm 6 mps 742 mmHg 54%
    04:00 +23°C° 0 mm 6 mps 742 mmHg 52%
    05:00 +23°C° 0 mm 7 mps 743 mmHg 50%
    06:00 +23°C° 0 mm 7 mps 743 mmHg 48%
    07:00 +24°C° 0 mm 7 mps 743 mmHg 44%
    08:00 +27°C° 0 mm 7 mps 743 mmHg 41%
    09:00 +28°C° 0 mm 7 mps 744 mmHg 37%
    10:00 +28°C° 0 mm 7 mps 743 mmHg 36%
    11:00 +29°C° 0 mm 8 mps 743 mmHg 36%
    12:00 +29°C° 0 mm 8 mps 743 mmHg 35%
    13:00 +29°C° 0 mm 8 mps 743 mmHg 36%
    14:00 +28°C° 0 mm 9 mps 743 mmHg 38%
    15:00 +28°C° 0 mm 9 mps 743 mmHg 39%
    16:00 +27°C° 0.1 mm 9 mps 742 mmHg 41%
    17:00 +27°C° 0.1 mm 9 mps 742 mmHg 42%
    18:00 +26°C° 0.1 mm 8 mps 742 mmHg 44%
    19:00 +24°C° 0.1 mm 8 mps 742 mmHg 45%
    20:00 +24°C° 0.1 mm 8 mps 742 mmHg 47%
    21:00 +23°C° 0.1 mm 8 mps 742 mmHg 48%
    22:00 +23°C° 0 mm 7 mps 742 mmHg 49%
    23:00 +22°C° 0 mm 6 mps 742 mmHg 49%

    Day after tomorrow, 7 June, Sunday

    Time Temperature Precipitation Wind Pressure Humidity
    00:00 +22°C° 0 mm 4 mps 742 mmHg 50%
    01:00 +21°C° 0 mm 4 mps 742 mmHg 53%
    02:00 +21°C° 0 mm 3 mps 742 mmHg 56%
    03:00 +20°C° 0 mm 2 mps 742 mmHg 60%
    04:00 +21°C° 0 mm 2 mps 742 mmHg 58%
    05:00 +21°C° 0 mm 2 mps 742 mmHg 56%
    06:00 +23°C° 0 mm 2 mps 742 mmHg 54%
    07:00 +24°C° 0 mm 3 mps 743 mmHg 45%
    08:00 +26°C° 0 mm 4 mps 743 mmHg 36%
    09:00 +28°C° 0 mm 5 mps 743 mmHg 27%
    10:00 +29°C° 0 mm 5 mps 743 mmHg 25%
    11:00 +30°C° 0 mm 5 mps 743 mmHg 23%
    12:00 +32°C° 0 mm 6 mps 742 mmHg 21%
    13:00 +32°C° 0 mm 6 mps 742 mmHg 23%
    14:00 +30°C° 0 mm 7 mps 742 mmHg 24%
    15:00 +31°C° 0 mm 8 mps 742 mmHg 25%
    16:00 +29°C° 0 mm 8 mps 741 mmHg 28%
    17:00 +28°C° 0 mm 8 mps 741 mmHg 30%
    18:00 +27°C° 0 mm 8 mps 741 mmHg 32%
    19:00 +26°C° 0 mm 6 mps 741 mmHg 34%
    20:00 +26°C° 0 mm 5 mps 741 mmHg 37%
    21:00 +25°C° 0 mm 3 mps 741 mmHg 39%
    22:00 +24°C° 0 mm 3 mps 741 mmHg 41%
    23:00 +24°C° 0 mm 2 mps 740 mmHg 43%

    8 June, Monday

    Time Temperature Precipitation Wind Pressure Humidity
    00:00 +23°C° 0 mm 1 mps 740 mmHg 46%
    01:00 +23°C° 0 mm 1 mps 740 mmHg 46%
    02:00 +22°C° 0 mm 1 mps 740 mmHg 47%
    03:00 +22°C° 0 mm 1 mps 740 mmHg 48%
    04:00 +23°C° 0 mm 1 mps 740 mmHg 45%
    05:00 +24°C° 0 mm 1 mps 740 mmHg 41%
    06:00 +25°C° 0 mm 1 mps 740 mmHg 38%
    07:00 +26°C° 0 mm 1 mps 740 mmHg 34%
    08:00 +28°C° 0 mm 1 mps 740 mmHg 30%
    09:00 +29°C° 0 mm 1 mps 740 mmHg 27%
    10:00 +30°C° 0 mm 2 mps 740 mmHg 26%
    11:00 +31°C° 0 mm 2 mps 740 mmHg 24%
    12:00 +31°C° 0 mm 3 mps 740 mmHg 23%
    13:00 +31°C° 0 mm 3 mps 739 mmHg 25%
    14:00 +32°C° 0 mm 4 mps 739 mmHg 26%
    15:00 +32°C° 0 mm 4 mps 739 mmHg 27%
    16:00 +30°C° 0 mm 3 mps 739 mmHg 28%
    17:00 +29°C° 0 mm 3 mps 738 mmHg 29%
    18:00 +29°C° 0 mm 2 mps 738 mmHg 30%
    19:00 +28°C° 0 mm 2 mps 739 mmHg 32%
    20:00 +27°C° 0 mm 2 mps 739 mmHg 34%
    21:00 +26°C° 0 mm 1 mps 739 mmHg 36%
    22:00 +26°C° 0 mm 1 mps 739 mmHg 37%
    23:00 +25°C° 0 mm 1 mps 739 mmHg 38%

    9 June, Tuesday

    Time Temperature Precipitation Wind Pressure Humidity
    00:00 +25°C° 0 mm 1 mps 739 mmHg 39%
    01:00 +24°C° 0 mm 1 mps 739 mmHg 41%
    02:00 +23°C° 0 mm 1 mps 738 mmHg 42%
    03:00 +21°C° 0 mm 0 mps 738 mmHg 43%
    04:00 +24°C° 0 mm 1 mps 738 mmHg 39%
    05:00 +25°C° 0 mm 1 mps 739 mmHg 35%
    06:00 +26°C° 0 mm 1 mps 739 mmHg 32%
    07:00 +28°C° 0 mm 1 mps 739 mmHg 29%
    08:00 +29°C° 0 mm 2 mps 739 mmHg 26%
    09:00 +31°C° 0 mm 3 mps 739 mmHg 23%
    10:00 +33°C° 0 mm 4 mps 739 mmHg 23%
    11:00 +33°C° 0 mm 5 mps 740 mmHg 23%
    12:00 +34°C° 0 mm 5 mps 740 mmHg 24%
    13:00 +33°C° 0 mm 5 mps 739 mmHg 24%
    14:00 +33°C° 0 mm 5 mps 739 mmHg 25%
    15:00 +33°C° 0 mm 5 mps 739 mmHg 25%
    16:00 +32°C° 0 mm 5 mps 739 mmHg 27%
    17:00 +30°C° 0 mm 4 mps 739 mmHg 29%
    18:00 +29°C° 0 mm 4 mps 738 mmHg 30%
    19:00 +28°C° 0 mm 3 mps 739 mmHg 33%
    20:00 +27°C° 0 mm 2 mps 739 mmHg 36%
    21:00 +26°C° 0 mm 1 mps 739 mmHg 39%
    22:00 +26°C° 0 mm 1 mps 739 mmHg 39%
    23:00 +26°C° 0 mm 1 mps 739 mmHg 39%

    10 June, Wednesday

    Time Temperature Precipitation Wind Pressure Humidity
    00:00 +25°C° 0 mm 1 mps 739 mmHg 39%
    01:00 +25°C° 0 mm 1 mps 739 mmHg 40%
    02:00 +24°C° 0 mm 1 mps 739 mmHg 40%
    03:00 +24°C° 0 mm 1 mps 738 mmHg 40%
    04:00 +25°C° 0 mm 1 mps 739 mmHg 38%
    05:00 +26°C° 0 mm 1 mps 739 mmHg 37%
    06:00 +24°C° 0 mm 0 mps 739 mmHg 35%
    07:00 +28°C° 0 mm 1 mps 739 mmHg 31%
    08:00 +30°C° 0 mm 1 mps 739 mmHg 27%
    09:00 +31°C° 0 mm 1 mps 740 mmHg 24%
    10:00 +32°C° 0 mm 2 mps 740 mmHg 22%
    11:00 +34°C° 0 mm 2 mps 740 mmHg 21%
    12:00 +35°C° 0 mm 3 mps 740 mmHg 19%
    13:00 +35°C° 0 mm 3 mps 740 mmHg 19%
    14:00 +35°C° 0 mm 3 mps 739 mmHg 18%
    15:00 +35°C° 0 mm 3 mps 739 mmHg 17%
    16:00 +34°C° 0 mm 3 mps 739 mmHg 18%
    17:00 +33°C° 0 mm 3 mps 739 mmHg 19%
    18:00 +33°C° 0 mm 3 mps 739 mmHg 20%
    19:00 +31°C° 0 mm 2 mps 739 mmHg 21%
    20:00 +29°C° 0 mm 1 mps 739 mmHg 23%
    21:00 +28°C° 0 mm 1 mps 739 mmHg 24%
    22:00 +27°C° 0 mm 1 mps 739 mmHg 26%
    23:00 +26°C° 0 mm 1 mps 739 mmHg 28%
    Show more